Regional Weather Roundup
Issued by NWS Raleigh/Durham, NC

Home | Current Version | Previous Version | Text Only | Print | Product List | Glossary On
Versions: 1 2 3 4 5 6 7 8 9 10 11 12 13 14 15 16 17 18 19 20 21 22 23 24 25 26 27 28 29 30 31 32 33 34 35 36 37 38 39 40 41 42 43 44 45 46 47 48 49 50
000
ASUS42 KRAH 180710
RWRRAH
NORTH CAROLINA WEATHER ROUNDUP
NATIONAL WEATHER SERVICE RALEIGH NC
200 AM EST SAT NOV 18 2017

NOTE: "FAIR" INDICATES FEW OR NO CLOUDS BELOW 12,000 FEET WITH NO
SIGNIFICANT WEATHER AND/OR OBSTRUCTIONS TO VISIBILITY.

NCZ001-053-055-056-065-067-180800-
WESTERN NORTH CAROLINA

CITY           SKY/WX    TMP DP  RH WIND       PRES   REMARKS
ASHEVILLE      PTCLDY    46  35  65 SE7       30.06F
JEFFERSON      CLOUDY    41  31  68 SE5       30.02F
MORGANTON      MOCLDY    37  36  97 CALM      30.10F
HICKORY        MOCLDY    46  33  60 S6        30.07F
RUTHERFORDTON  PTCLDY    38  37  94 S3        30.08F
MOUNT AIRY     CLOUDY    45  31  57 CALM      30.09F
BOONE          PTCLDY    44  30  57 CALM      30.03F
$$

NCZ021-022-025-041-071-084-088-180800-
CENTRAL NORTH CAROLINA

CITY           SKY/WX    TMP DP  RH WIND       PRES   REMARKS
CHARLOTTE      PTCLDY    43  36  76 SE7       30.09F
GREENSBORO     MOCLDY    41  34  76 S8        30.06F
WINSTON-SALEM  CLOUDY    45  33  63 S6        30.08F
RALEIGH-DURHAM CLEAR     35  32  88 CALM      30.11F
FORT BRAGG     CLEAR     33  31  94 CALM      30.11F
FAYETTEVILLE   CLEAR     33  33 100 CALM      30.12F
BURLINGTON     PTCLDY    34  31  88 CALM      30.09F
LAURINBURG     CLEAR     32  31  96 CALM      30.13F
$$

NCZ011-015-027-028-043-044-047-080-103-180800-
NORTHEASTERN NORTH CAROLINA

CITY           SKY/WX    TMP DP  RH WIND       PRES   REMARKS
ROCKY MT-WILSO CLEAR     31  31 100 CALM      30.13F
GREENVILLE     CLEAR     32  32 100 CALM      30.16S
WASHINGTON     CLEAR     34  33  95 CALM      30.16R
ELIZABETH CITY CLEAR     34  34 100 CALM      30.13F
MANTEO         CLEAR     36  35  98 CALM      30.13F
CAPE HATTERAS  CLEAR     37  36  96 CALM      30.13F
$$

NCZ078-087-090-091-093-098-101-180800-
SOUTHEASTERN NORTH CAROLINA

CITY           SKY/WX    TMP DP  RH WIND       PRES   REMARKS
LUMBERTON      CLEAR     29  29 100 CALM      30.13F
GOLDSBORO      CLEAR     33  30  89 CALM      30.12F
KINSTON        CLEAR     31  30  98 CALM      30.15S
KENANSVILLE    CLEAR     30  28  93 CALM      30.15S FOG
NEW BERN       PTCLDY    32  32 100 CALM      30.16S
CHERRY POINT   NOT AVBL
BEAUFORT       CLEAR     36  35  96 CALM      30.14S
JACKSONVILLE   NOT AVBL
WILMINGTON     CLEAR     38  36  92 CALM      30.14S
$$




USA.gov is the U.S. government's official web portal to all federal, state and local government web resources and services.